Weather History for Craig, CO

Change the Weather History Date:

Friday, November 30, 2012

  Actual Average Record
Temperature  
Mean Temperature 38 °F 23 °F  
Max Temperature 57 °F 36 °F 57 °F (1998)
Min Temperature 19 °F 11 °F -20 °F (2006)
Degree Days  
Heating Degree Days 27 42  
Month to date heating degree days 847 1040  
Since 1 July heating degree days 1719 2085  
Cooling Degree Days 0 0  
Month to date cooling degree days 0 0  
Year to date cooling degree days 344 142  
Moisture  
Dew Point 23 °F    
Average Humidity 58    
Maximum Humidity 88    
Minimum Humidity 28    
Precipitation  
Precipitation 0.00 in 0.04 in 0.42 in (2007)
Month to date precipitation 0.43 1.45  
Year to date precipitation 6.13 15.06  
Sea Level Pressure  
Sea Level Pressure 30.08 in    
Wind  
Wind Speed 7 mph (SW)    
Max Wind Speed 26 mph    
Max Gust Speed 33 mph    
Visibility 10 miles    
Events      
T = Trace of Precipitation, MM = Missing Value Source: NWS Daily Summary

Daily Weather History Graph

Daily Weather History Graph

Search for Another Location

Airport:

Trip Planner

Search our weather history database for the weather conditions in past years. The results will help you decide how hot, cold, wet, or windy it might be!

Date:

Astronomy

Nov. 30, 2012 Rise Set
Actual Time 7:13 AM MST 4:44 PM MST
Civil Twilight 6:43 AM MST 5:14 PM MST
Nautical Twilight 6:09 AM MST 5:48 PM MST
Astronomical Twilight 5:36 AM MST 6:21 PM MST
Moon 6:41 PM MST (11/30) 8:47 AM MST (11/30)
Length of Visible Light 10h 30m
Length of Day
9h 30m
Waning Gibbous, 96% of the Moon is Illuminated
Nov 30
Waning Gibbous
Dec 6
Last Quarter
Dec 13
New
Dec 19
First Quarter
Dec 28
Full

Hourly Weather History & Observations

Time (MST) Temp. Windchill Dew Point Humidity Pressure Visibility Wind Dir Wind Speed Gust Speed Precip Events Conditions
12:53 AM 27.0 °F 21.6 °F 21.0 °F 78% 30.14 in 10.0 mi East 4.6 mph - N/A   Partly Cloudy
1:53 AM 26.1 °F - 19.9 °F 78% 30.15 in 10.0 mi Calm Calm - N/A   Clear
2:53 AM 25.0 °F - 19.9 °F 81% 30.16 in 10.0 mi Calm Calm - N/A   Clear
3:53 AM 28.9 °F - 21.9 °F 75% 30.14 in 10.0 mi Calm Calm - N/A   Overcast
4:53 AM 24.1 °F 19.7 °F 19.0 °F 81% 30.18 in 10.0 mi SW 3.5 mph - N/A   Clear
5:53 AM 24.1 °F - 19.0 °F 81% 30.20 in 10.0 mi Calm Calm - N/A   Clear
6:53 AM 23.0 °F - 18.0 °F 81% 30.21 in 10.0 mi Calm Calm - N/A   Clear
7:53 AM 23.0 °F - 19.0 °F 85% 30.23 in 10.0 mi Calm Calm - N/A   Clear
8:53 AM 30.0 °F - 23.0 °F 75% 30.22 in 10.0 mi Calm Calm - N/A   Partly Cloudy
9:53 AM 37.9 °F - 26.1 °F 62% 30.16 in 10.0 mi Calm Calm - N/A   Clear
10:53 AM 48.0 °F - 26.1 °F 42% 30.10 in 10.0 mi NNE 5.8 mph - N/A   Partly Cloudy
11:53 AM 55.0 °F - 26.1 °F 33% 30.03 in 10.0 mi SW 23.0 mph 31.1 mph N/A   Partly Cloudy
12:53 PM 55.9 °F - 25.0 °F 30% 29.98 in 10.0 mi WSW 19.6 mph 28.8 mph N/A   Clear
1:53 PM 57.0 °F - 25.0 °F 29% 29.96 in 10.0 mi WSW 21.9 mph 28.8 mph N/A   Clear
2:53 PM 54.0 °F - 24.1 °F 31% 29.96 in 10.0 mi WSW 16.1 mph 24.2 mph N/A   Clear
3:53 PM 52.0 °F - 24.1 °F 34% 29.97 in 10.0 mi WSW 15.0 mph - N/A   Clear
4:53 PM 50.0 °F - 23.0 °F 35% 30.02 in 10.0 mi WSW 17.3 mph - N/A   Clear
5:53 PM 45.0 °F 41.2 °F 23.0 °F 42% 30.04 in 10.0 mi West 6.9 mph - N/A   Clear
6:53 PM 41.0 °F - 23.0 °F 49% 30.06 in 10.0 mi Calm Calm - N/A   Clear
7:53 PM 36.0 °F 32.1 °F 24.1 °F 62% 30.07 in 10.0 mi ESE 4.6 mph - N/A   Clear
8:53 PM 36.0 °F 33.3 °F 24.1 °F 62% 30.06 in 10.0 mi SE 3.5 mph - N/A   Clear
9:53 PM 37.0 °F 34.5 °F 24.1 °F 59% 30.02 in 10.0 mi ESE 3.5 mph - N/A   Scattered Clouds
10:48 PM 48.2 °F - 26.6 °F 43% 30.03 in 10.0 mi SW 19.6 mph 33.4 mph N/A   Overcast
10:53 PM 46.9 °F - 26.1 °F 44% 29.96 in 10.0 mi SW 23.0 mph 33.4 mph N/A   Overcast
11:53 PM 43.0 °F 37.7 °F 30.9 °F 62% 29.96 in 10.0 mi SW 9.2 mph - N/A   Overcast